When you browse on this site, cookies collect data to enhance your experience and personalize the content and advertising you see.
Visit our Privacy Policy to learn more. By continuing to use the site, you agree to this use of cookies and data.
  • în România
  • Lista ţărilor
  • Pe 7 zile
  • Temperatura apei
  • Meteo pe hartă
  • Widget-uri
  • user-avatar
    Intrare

    Meteo pe oră la Trondheim

    Astăzi, 28 Mai, Joi

    Timp Temperatura Precipitaţii Vânt Presiune Umiditate
    00:00 +6°C° 0.1 mm 5 m/s 767 mmHg 88%
    01:00 +6°C° 0 mm 4 m/s 768 mmHg 89%
    02:00 +6°C° 0.1 mm 4 m/s 768 mmHg 89%
    03:00 +6°C° 0.1 mm 5 m/s 767 mmHg 89%
    04:00 +6°C° 0.1 mm 5 m/s 767 mmHg 89%
    05:00 +6°C° 0.1 mm 5 m/s 768 mmHg 89%
    06:00 +6°C° 0.1 mm 5 m/s 768 mmHg 89%
    07:00 +6°C° 0.1 mm 5 m/s 768 mmHg 89%
    08:00 +6°C° 0.2 mm 5 m/s 768 mmHg 86%
    09:00 +7°C° 0.2 mm 6 m/s 768 mmHg 83%
    10:00 +7°C° 0.2 mm 6 m/s 768 mmHg 80%
    11:00 +8°C° 0.1 mm 6 m/s 768 mmHg 75%
    12:00 +8°C° 0.1 mm 7 m/s 768 mmHg 70%
    13:00 +9°C° 0.1 mm 7 m/s 768 mmHg 65%
    14:00 +9°C° 0.1 mm 7 m/s 768 mmHg 65%
    15:00 +9°C° 0.1 mm 6 m/s 768 mmHg 64%
    16:00 +9°C° 0.1 mm 6 m/s 768 mmHg 64%
    17:00 +9°C° 0 mm 6 m/s 769 mmHg 65%
    18:00 +9°C° 0 mm 5 m/s 769 mmHg 66%
    19:00 +10°C° 0 mm 4 m/s 769 mmHg 68%
    20:00 +8°C° 0 mm 4 m/s 769 mmHg 73%
    21:00 +8°C° 0 mm 3 m/s 769 mmHg 78%
    22:00 +7°C° 0 mm 2 m/s 769 mmHg 84%
    23:00 +7°C° 0 mm 2 m/s 769 mmHg 85%

    Mâine, 29 Mai, Vineri

    Timp Temperatura Precipitaţii Vânt Presiune Umiditate
    00:00 +6°C° 0 mm 2 m/s 769 mmHg 87%
    01:00 +7°C° 0 mm 1 m/s 769 mmHg 89%
    02:00 +7°C° 0 mm 1 m/s 769 mmHg 88%
    03:00 +6°C° 0 mm 1 m/s 769 mmHg 88%
    04:00 +6°C° 0 mm 1 m/s 769 mmHg 87%
    05:00 +8°C° 0 mm 1 m/s 769 mmHg 80%
    06:00 +9°C° 0 mm 1 m/s 769 mmHg 74%
    07:00 +11°C° 0 mm 1 m/s 769 mmHg 67%
    08:00 +12°C° 0 mm 1 m/s 769 mmHg 63%
    09:00 +13°C° 0 mm 1 m/s 769 mmHg 58%
    10:00 +14°C° 0 mm 1 m/s 769 mmHg 54%
    11:00 +15°C° 0 mm 1 m/s 769 mmHg 53%
    12:00 +15°C° 0 mm 1 m/s 769 mmHg 51%
    13:00 +16°C° 0 mm 1 m/s 769 mmHg 50%
    14:00 +16°C° 0 mm 1 m/s 769 mmHg 50%
    15:00 +16°C° 0 mm 1 m/s 769 mmHg 50%
    16:00 +16°C° 0 mm 2 m/s 769 mmHg 50%
    17:00 +16°C° 0 mm 1 m/s 769 mmHg 53%
    18:00 +15°C° 0 mm 1 m/s 769 mmHg 56%
    19:00 +14°C° 0 mm 1 m/s 769 mmHg 59%
    20:00 +13°C° 0 mm 1 m/s 769 mmHg 65%
    21:00 +11°C° 0 mm 0 m/s 769 mmHg 71%
    22:00 +9°C° 0 mm 0 m/s 769 mmHg 78%
    23:00 +9°C° 0 mm 0 m/s 769 mmHg 79%

    Poimâine, 30 Mai, Sâmbătă

    Timp Temperatura Precipitaţii Vânt Presiune Umiditate
    00:00 +8°C° 0 mm 0 m/s 770 mmHg 80%
    01:00 +9°C° 0 mm 1 m/s 770 mmHg 81%
    02:00 +9°C° 0 mm 1 m/s 770 mmHg 80%
    03:00 +9°C° 0 mm 1 m/s 770 mmHg 79%
    04:00 +10°C° 0 mm 1 m/s 770 mmHg 79%
    05:00 +11°C° 0 mm 1 m/s 770 mmHg 72%
    06:00 +13°C° 0 mm 1 m/s 770 mmHg 66%
    07:00 +15°C° 0 mm 1 m/s 770 mmHg 59%
    08:00 +16°C° 0 mm 1 m/s 770 mmHg 56%
    09:00 +19°C° 0 mm 1 m/s 770 mmHg 52%
    10:00 +20°C° 0 mm 1 m/s 769 mmHg 48%
    11:00 +21°C° 0 mm 1 m/s 769 mmHg 46%
    12:00 +21°C° 0 mm 2 m/s 769 mmHg 44%
    13:00 +23°C° 0 mm 2 m/s 769 mmHg 42%
    14:00 +23°C° 0 mm 2 m/s 769 mmHg 42%
    15:00 +23°C° 0 mm 2 m/s 769 mmHg 42%
    16:00 +23°C° 0 mm 2 m/s 769 mmHg 42%
    17:00 +23°C° 0 mm 2 m/s 769 mmHg 45%
    18:00 +23°C° 0 mm 2 m/s 769 mmHg 48%
    19:00 +21°C° 0 mm 2 m/s 768 mmHg 50%
    20:00 +19°C° 0 mm 2 m/s 769 mmHg 55%
    21:00 +18°C° 0 mm 1 m/s 769 mmHg 60%
    22:00 +15°C° 0 mm 1 m/s 769 mmHg 64%
    23:00 +15°C° 0 mm 1 m/s 769 mmHg 65%

    31 Mai, Duminică

    Timp Temperatura Precipitaţii Vânt Presiune Umiditate
    00:00 +15°C° 0 mm 1 m/s 769 mmHg 65%
    01:00 +14°C° 0 mm 1 m/s 769 mmHg 66%
    02:00 +14°C° 0 mm 1 m/s 769 mmHg 66%
    03:00 +14°C° 0 mm 1 m/s 769 mmHg 66%
    04:00 +14°C° 0 mm 1 m/s 769 mmHg 65%
    05:00 +15°C° 0 mm 1 m/s 769 mmHg 61%
    06:00 +18°C° 0 mm 1 m/s 769 mmHg 56%
    07:00 +20°C° 0 mm 1 m/s 769 mmHg 51%
    08:00 +21°C° 0 mm 1 m/s 769 mmHg 48%
    09:00 +22°C° 0 mm 1 m/s 769 mmHg 44%
    10:00 +24°C° 0 mm 1 m/s 769 mmHg 40%
    11:00 +24°C° 0 mm 1 m/s 769 mmHg 39%
    12:00 +25°C° 0 mm 1 m/s 768 mmHg 37%
    13:00 +26°C° 0 mm 1 m/s 768 mmHg 35%
    14:00 +26°C° 0 mm 2 m/s 768 mmHg 36%
    15:00 +25°C° 0 mm 2 m/s 768 mmHg 37%
    16:00 +25°C° 0 mm 2 m/s 767 mmHg 38%
    17:00 +24°C° 0 mm 2 m/s 767 mmHg 43%
    18:00 +23°C° 0 mm 2 m/s 767 mmHg 48%
    19:00 +20°C° 0 mm 2 m/s 767 mmHg 53%
    20:00 +18°C° 0 mm 2 m/s 767 mmHg 59%
    21:00 +18°C° 0 mm 1 m/s 767 mmHg 65%
    22:00 +15°C° 0 mm 1 m/s 767 mmHg 71%
    23:00 +14°C° 0 mm 1 m/s 767 mmHg 72%

    1 Iunie, Luni

    Timp Temperatura Precipitaţii Vânt Presiune Umiditate
    00:00 +14°C° 0 mm 1 m/s 767 mmHg 72%
    01:00 +14°C° 0 mm 1 m/s 767 mmHg 72%
    02:00 +14°C° 0 mm 1 m/s 767 mmHg 72%
    03:00 +14°C° 0 mm 1 m/s 767 mmHg 72%
    04:00 +13°C° 0 mm 0 m/s 766 mmHg 72%
    05:00 +14°C° 0 mm 0 m/s 766 mmHg 68%
    06:00 +16°C° 0 mm 1 m/s 766 mmHg 64%
    07:00 +18°C° 0 mm 1 m/s 766 mmHg 60%
    08:00 +19°C° 0 mm 1 m/s 766 mmHg 56%
    09:00 +20°C° 0 mm 1 m/s 766 mmHg 53%
    10:00 +22°C° 0 mm 1 m/s 765 mmHg 49%
    11:00 +21°C° 0 mm 2 m/s 765 mmHg 48%
    12:00 +21°C° 0 mm 2 m/s 765 mmHg 47%
    13:00 +21°C° 0 mm 2 m/s 765 mmHg 47%
    14:00 +21°C° 0 mm 2 m/s 764 mmHg 46%
    15:00 +21°C° 0 mm 2 m/s 764 mmHg 46%
    16:00 +21°C° 0 mm 3 m/s 764 mmHg 46%
    17:00 +20°C° 0 mm 2 m/s 764 mmHg 48%
    18:00 +19°C° 0 mm 2 m/s 764 mmHg 50%
    19:00 +18°C° 0 mm 2 m/s 764 mmHg 52%
    20:00 +17°C° 0 mm 2 m/s 764 mmHg 55%
    21:00 +15°C° 0 mm 1 m/s 764 mmHg 59%
    22:00 +14°C° 0 mm 1 m/s 764 mmHg 63%
    23:00 +13°C° 0 mm 1 m/s 763 mmHg 63%

    2 Iunie, Marţi

    Timp Temperatura Precipitaţii Vânt Presiune Umiditate
    00:00 +13°C° 0 mm 1 m/s 763 mmHg 63%
    01:00 +12°C° 0 mm 0 m/s 763 mmHg 63%
    02:00 +12°C° 0 mm 0 m/s 763 mmHg 63%
    03:00 +12°C° 0 mm 0 m/s 763 mmHg 63%
    04:00 +12°C° 0 mm 0 m/s 762 mmHg 63%
    05:00 +13°C° 0 mm 0 m/s 762 mmHg 60%
    06:00 +14°C° 0 mm 0 m/s 762 mmHg 56%
    07:00 +15°C° 0 mm 0 m/s 762 mmHg 53%
    08:00 +18°C° 0 mm 1 m/s 762 mmHg 51%
    09:00 +19°C° 0 mm 1 m/s 762 mmHg 49%
    10:00 +19°C° 0 mm 2 m/s 762 mmHg 47%
    11:00 +19°C° 0 mm 2 m/s 762 mmHg 48%
    12:00 +19°C° 0 mm 3 m/s 761 mmHg 50%
    13:00 +19°C° 0 mm 3 m/s 761 mmHg 51%
    14:00 +18°C° 0 mm 3 m/s 761 mmHg 54%
    15:00 +17°C° 0 mm 3 m/s 761 mmHg 58%
    16:00 +16°C° 0 mm 3 m/s 760 mmHg 61%
    17:00 +15°C° 0.3 mm 2 m/s 760 mmHg 69%
    18:00 +14°C° 0.3 mm 2 m/s 760 mmHg 77%
    19:00 +13°C° 0.3 mm 2 m/s 759 mmHg 85%
    20:00 +12°C° 0.9 mm 1 m/s 759 mmHg 88%
    21:00 +12°C° 0.9 mm 1 m/s 759 mmHg 92%
    22:00 +12°C° 0.9 mm 1 m/s 759 mmHg 96%
    23:00 +11°C° 0.8 mm 0 m/s 759 mmHg 96%
    Arată mai mult